New Bern, NC

8:10 AM EDT on April 21, 2018 (GMT -0400)
Craven County Regional

Weather History for KEWN - March, 2013

Change the Weather History Date:

Friday, March 15, 2013

  Actual Average Record
Temperature  
Mean Temperature 47 °F 53 °F  
Max Temperature 63 °F 65 °F 89 °F (1973)
Min Temperature 30 °F 42 °F 24 °F (1993)
Degree Days  
Heating Degree Days 18 12  
Month to date heating degree days 246 211  
Since 1 July heating degree days 2172 2357  
Cooling Degree Days 0 0  
Month to date cooling degree days 0 0  
Year to date cooling degree days 7 3  
Moisture  
Dew Point 27 °F    
Average Humidity 52    
Maximum Humidity 85    
Minimum Humidity 19    
Precipitation  
Precipitation 0.00 in 0.16 in 1.36 in (1966)
Month to date precipitation 0.93 2.20  
Year to date precipitation 7.07 9.88  
Snow  
Snow 0.00 in - - ()
Month to date snowfall 0.0  
Since 1 July snowfall T  
Snow Depth 0.00 in    
Sea Level Pressure  
Sea Level Pressure 30.09 in    
Wind  
Wind Speed 7 mph (WSW)    
Max Wind Speed 15 mph    
Max Gust Speed 21 mph    
Visibility 10 miles    
Events      
T = Trace of Precipitation, MM = Missing Value Source: NWS Daily Summary

Daily Weather History Graph

Daily Weather History Graph

Search for Another Location

Airport or City:

Astronomy

Mar. 15, 2013 Rise Set
Actual Time 7:18 AM EDT 7:15 PM EDT
Civil Twilight 6:53 AM EDT 7:41 PM EDT
Nautical Twilight 6:23 AM EDT 8:10 PM EDT
Astronomical Twilight 5:54 AM EDT 8:40 PM EDT
Moon 9:17 AM EDT (3/15) 11:17 PM EDT (3/15)
Length of Visible Light 12h 48m
Length of Day
11h 57m
Waxing Crescent, 15% of the Moon is Illuminated
Mar 15
Waxing Crescent
Mar 19
First Quarter
Mar 27
Full
Apr 3
Last Quarter
Apr 10
New

Hourly Weather History & Observations

Time (EDT) Temp. Windchill Dew Point Humidity Pressure Visibility Wind Dir Wind Speed Gust Speed Precip Events Conditions
12:54 AM 36.0 °F 33.3 °F 27.0 °F 70% 30.16 in 10.0 mi SW 3.5 mph - N/A   Clear
1:54 AM 36.0 °F 32.1 °F 27.0 °F 70% 30.17 in 10.0 mi West 4.6 mph - N/A   Clear
3:54 AM 37.0 °F - 25.0 °F 62% 30.17 in 10.0 mi Calm Calm - N/A   Clear
4:54 AM 35.1 °F - 26.1 °F 70% 30.17 in 10.0 mi Calm Calm - N/A   Clear
5:54 AM 30.9 °F - 25.0 °F 79% 30.18 in 10.0 mi Calm Calm - N/A   Clear
6:54 AM 30.9 °F 27.5 °F 26.1 °F 82% 30.18 in 10.0 mi SSW 3.5 mph - N/A   Clear
7:54 AM 33.1 °F - 25.0 °F 72% 30.20 in 10.0 mi Calm Calm - N/A   Clear
8:54 AM 43.0 °F 40.3 °F 27.0 °F 53% 30.20 in 10.0 mi West 4.6 mph - N/A   Clear
9:54 AM 48.0 °F - 23.0 °F 37% 30.21 in 10.0 mi NW 5.8 mph - N/A   Clear
10:54 AM 52.0 °F - 19.9 °F 28% 30.18 in 10.0 mi West 5.8 mph - N/A   Clear
11:54 AM 53.1 °F - 19.0 °F 26% 30.16 in 10.0 mi NW 5.8 mph - N/A   Clear
12:54 PM 57.0 °F - 18.0 °F 22% 30.13 in 10.0 mi West 9.2 mph 18.4 mph N/A   Clear
1:54 PM 59.0 °F - 17.1 °F 20% 30.09 in 10.0 mi WSW 15.0 mph 19.6 mph N/A   Clear
2:54 PM 61.0 °F - 26.1 °F 26% 30.05 in 10.0 mi West 10.4 mph 17.3 mph N/A   Clear
3:54 PM 62.1 °F - 27.0 °F 26% 30.02 in 10.0 mi West 12.7 mph 20.7 mph N/A   Clear
4:54 PM 63.0 °F - 28.0 °F 27% 29.99 in 10.0 mi WSW 9.2 mph - N/A   Clear
5:54 PM 59.0 °F - 30.0 °F 33% 29.99 in 10.0 mi SSW 15.0 mph 19.6 mph N/A   Clear
6:01 PM 59.0 °F - 30.2 °F 34% 29.99 in 10.0 mi SSW 11.5 mph - N/A   Clear
6:54 PM 55.0 °F - 30.9 °F 40% 29.98 in 10.0 mi SSW 12.7 mph 20.7 mph N/A   Clear
7:54 PM 53.1 °F - 34.0 °F 48% 29.98 in 10.0 mi SSW 10.4 mph - N/A   Clear
8:54 PM 51.1 °F - 35.1 °F 54% 29.98 in 10.0 mi SSW 9.2 mph - N/A   Clear
9:54 PM 51.1 °F - 34.0 °F 52% 29.99 in 10.0 mi SSW 9.2 mph - N/A   Clear
10:54 PM 50.0 °F - 33.1 °F 52% 29.98 in 10.0 mi SSW 8.1 mph - N/A   Clear
11:54 PM 48.9 °F - 34.0 °F 56% 29.96 in 10.0 mi SSW 5.8 mph - N/A   Clear